Location: Rounton
(54.4000°N, 1.3500°W)
Time: 07:24:29
(UTC+00:00)

Vanguard 1 - Pass Details

Date: 04 December 2021
Orbit: 652 x 3830 km, 34.2° (Epoch: 16 January)

Event Time Altitude Azimuth Distance (km) Brightness Sun altitude
Rises 22:29:30 0° 205° (SSW) 7,079 - -54.1°
Reaches altitude 10° 22:35:02 10° 195° (SSW) 6,417 - -54.5°
Maximum altitude 22:51:34 28° 146° (SE) 5,498 - -55.8°
Drops below altitude 10° 23:08:19 10° 98° (E) 6,559 - -56.7°
Exits shadow 23:10:20 - 94° (E) 6,795 14.2 -56.8°
Sets 23:13:57 0° 88° (E) 7,261 14.4 -57.0°
